TimePST,TemperatureF,Dew PointF,Humidity,Sea Level PressureIn,VisibilityMPH,Wind Direction,Wind SpeedMPH,Gust SpeedMPH,PrecipitationIn,Events,Conditions,WindDirDegrees,DateUTC
12:54 AM,46.9,41.0,80,30.17,10.0,Calm,Calm,-,N/A,,Clear,0,2013-02-02 08:54:00
1:54 AM,50.0,42.1,74,30.16,10.0,West,4.6,-,N/A,,Clear,270,2013-02-02 09:54:00
2:54 AM,48.9,42.1,77,30.16,10.0,NNE,3.5,-,N/A,,Clear,30,2013-02-02 10:54:00
3:54 AM,46.0,39.9,79,30.16,10.0,Calm,Calm,-,N/A,,Clear,0,2013-02-02 11:54:00
4:54 AM,46.0,41.0,83,30.16,10.0,Calm,Calm,-,N/A,,Clear,0,2013-02-02 12:54:00
5:54 AM,43.0,37.9,82,30.17,10.0,Calm,Calm,-,N/A,,Clear,0,2013-02-02 13:54:00
6:54 AM,43.0,37.0,80,30.17,10.0,Calm,Calm,-,N/A,,Clear,0,2013-02-02 14:54:00
7:54 AM,48.0,41.0,77,30.18,10.0,Calm,Calm,-,N/A,,Clear,0,2013-02-02 15:54:00
8:54 AM,54.0,43.0,66,30.19,10.0,Calm,Calm,-,N/A,,Clear,0,2013-02-02 16:54:00
9:54 AM,61.0,43.0,52,30.18,10.0,Calm,Calm,-,N/A,,Clear,0,2013-02-02 17:54:00
10:54 AM,69.1,45.0,42,30.17,10.0,South,3.5,-,N/A,,Clear,180,2013-02-02 18:54:00
11:54 AM,75.9,39.0,26,30.14,10.0,Calm,Calm,-,N/A,,Clear,0,2013-02-02 19:54:00
12:54 PM,80.1,37.9,22,30.10,10.0,Calm,Calm,-,N/A,,Clear,0,2013-02-02 20:54:00
1:54 PM,75.0,43.0,32,30.09,10.0,Calm,Calm,-,N/A,,Clear,0,2013-02-02 21:54:00
2:54 PM,73.9,46.9,38,30.08,10.0,Calm,Calm,-,N/A,,Scattered Clouds,0,2013-02-02 22:54:00
3:54 PM,71.1,48.9,45,30.08,10.0,South,3.5,-,N/A,,Overcast,180,2013-02-02 23:54:00
4:54 PM,64.9,50.0,58,30.11,10.0,South,5.8,-,N/A,,Overcast,170,2013-02-03 00:54:00
5:54 PM,64.9,48.9,56,30.12,10.0,Calm,Calm,-,N/A,,Overcast,0,2013-02-03 01:54:00
6:54 PM,63.0,51.1,65,30.13,10.0,ENE,4.6,-,N/A,,Overcast,70,2013-02-03 02:54:00
7:54 PM,62.1,50.0,65,30.16,10.0,SW,4.6,-,0.00,,Mostly Cloudy,230,2013-02-03 03:54:00
8:54 PM,60.1,48.9,67,30.15,10.0,Calm,Calm,-,N/A,,Overcast,0,2013-02-03 04:54:00
9:54 PM,59.0,50.0,72,30.14,10.0,Calm,Calm,-,N/A,,Overcast,0,2013-02-03 05:54:00
10:54 PM,57.9,50.0,75,30.14,10.0,Calm,Calm,-,N/A,,Overcast,0,2013-02-03 06:54:00
11:54 PM,57.9,50.0,75,30.13,10.0,Calm,Calm,-,N/A,,Overcast,0,2013-02-03 07:54:00